Weather in Novoye Yegoldayevo

Russia / Ryazan Oblast     53°44′27″N   40°18′41″E
temp.,
°C
wind,
m/s
gust,
m/s
humid.,
%
clouds,
%
prec.,
mm/h
press.,
hPa
HPBL,
m
1 march, mon
mon100:00−8nne129688 0.1 102021
03:00−10n229788 0.1 102221
06:00−12n229778 0.0 102421
09:00−10nnw229656 0.0 102669
12:00−6w239135 0.0 1026245
15:00−4sw359360 0.0 1024315
18:00−5wsw499695 0.0 1023251
21:00−2wsw5119198 0.1 1021487
2 march, tue
tue200:00−2wsw61194100 0.0 1018413
03:000wsw61293100 0.1 1016560
06:00+1wsw61394100 0.0 1013583
09:00+1w61396100 0.0 1011613
12:00+1wnw613100100 0.2 1009594
15:00+1wnw510100100 0.3 1008571
18:00−1nw41090100 0.1 1008313
21:00−2nw41190100 0.2 1009370
3 march, wed
wed300:00−2nw5119593 0.1 1010375
03:00−3nw5129696 0.2 1011478
06:00−4nw71391100 0.2 1011644
09:00−6nnw7139198 0.3 1014822
12:00−4nnw71187100 0.1 1015799
15:00−2nw6108472 0.1 1016938
18:00−2wnw4119299 0.1 1015642
21:00−2w51188100 0.2 1016535
4 march, thu
thu400:00−2w61292100 0.1 1014485
03:00−4w5119394 0.1 1013298
06:00−4wsw6129195 0.0 1011358
09:00−2sw8149096 0.0 1008522
12:00+1wsw91788100 0.0 1005833
15:00+1wsw81584100 0.0 1003964
18:000wsw81781100 0.0 1000834
21:00+1w71497100 0.1 1000892
5 march, fri
fri500:000w71397100 0.3 1001705
03:00−4nw4890100 0.6 1004210
06:00−8nnw349566 0.0 100767
09:00−7nnw239557 0.0 1009105
12:00−4nw128760 0.0 1011354
15:00−3nw128480 0.0 1012490
18:00−5nnw1190100 0.0 101321
21:00−6ese119197 0.0 101421